カタログに戻る

IRIDIUM 33 DEB

LostPO
NORAD 35907·DEBRIS·🇺🇸 United States

打ち上げ Sep 14, 1997 から Baikonur Cosmodrome

Loading…

次のパス (今後24時間)

TLE

古いSource: Space-Track

元期: Oct 31, 2009, 22:24 UTC

1 35907U 97051TQ  09304.93338152  .00001880  00000-0  10320-2 0  9991
2 35907  86.3762  15.3133 0153302 320.4253  42.6240 14.05561339 13433

AllMySatでIRIDIUM 33 DEBをリアルタイム追跡

Download on the App Store